TimeEST,TemperatureF,Dew PointF,Humidity,Sea Level PressureIn,VisibilityMPH,Wind Direction,Wind SpeedMPH,Gust SpeedMPH,PrecipitationIn,Events,Conditions,WindDirDegrees,DateUTC
12:15 AM,47.8,46.4,95,29.97,0.8,SW,3.5,-,N/A,,Mist,220,2013-02-12 05:15:00
12:35 AM,49.1,47.8,95,29.99,3.0,West,3.5,-,N/A,,Clear,260,2013-02-12 05:35:00
12:55 AM,47.3,46.2,96,29.99,1.5,Calm,Calm,-,N/A,,Mist,0,2013-02-12 05:55:00
1:15 AM,46.0,45.0,96,30.01,0.5,Calm,Calm,-,N/A,Fog,Fog,0,2013-02-12 06:15:00
1:35 AM,47.5,46.6,97,30.00,7.0,SW,3.5,-,N/A,,Clear,220,2013-02-12 06:35:00
1:55 AM,46.8,45.7,96,29.99,7.0,Calm,Calm,-,N/A,,Clear,0,2013-02-12 06:55:00
2:15 AM,46.0,44.8,95,29.99,4.0,Calm,Calm,-,N/A,,Clear,0,2013-02-12 07:15:00
2:35 AM,44.1,42.6,95,30.01,10.0,Calm,Calm,-,N/A,,Clear,0,2013-02-12 07:35:00
2:55 AM,43.2,39.7,88,30.01,10.0,Calm,Calm,-,N/A,,Clear,0,2013-02-12 07:55:00
3:15 AM,44.1,40.6,88,30.01,7.0,West,3.5,-,N/A,,Clear,280,2013-02-12 08:15:00
3:35 AM,45.3,38.7,78,30.01,10.0,NW,4.6,-,N/A,,Clear,310,2013-02-12 08:35:00
3:55 AM,43.7,39.4,85,30.01,10.0,Calm,Calm,-,N/A,,Clear,0,2013-02-12 08:55:00
4:15 AM,44.2,39.2,82,30.01,10.0,NW,4.6,-,N/A,,Clear,310,2013-02-12 09:15:00
4:35 AM,46.0,30.0,54,30.01,10.0,NW,6.9,-,N/A,,Clear,320,2013-02-12 09:35:00
4:55 AM,45.9,28.4,51,30.01,10.0,NNW,5.8,-,N/A,,Clear,340,2013-02-12 09:55:00
5:15 AM,44.1,28.0,53,30.02,10.0,NW,5.8,-,N/A,,Clear,310,2013-02-12 10:15:00
5:35 AM,40.3,34.0,78,30.03,10.0,Calm,Calm,-,N/A,,Clear,0,2013-02-12 10:35:00
5:55 AM,41.0,31.3,68,30.03,10.0,Calm,Calm,-,N/A,,Clear,0,2013-02-12 10:55:00
6:15 AM,43.0,28.8,57,30.02,10.0,Calm,Calm,-,N/A,,Clear,0,2013-02-12 11:15:00
6:35 AM,43.0,27.3,54,30.05,10.0,Calm,Calm,-,N/A,,Clear,0,2013-02-12 11:35:00
6:55 AM,43.0,26.2,52,30.04,10.0,NW,4.6,-,N/A,,Clear,310,2013-02-12 11:55:00
7:15 AM,41.0,27.3,58,30.04,10.0,NNW,5.8,-,N/A,,Clear,330,2013-02-12 12:15:00
7:35 AM,35.1,32.0,89,30.05,10.0,Calm,Calm,-,N/A,,Clear,0,2013-02-12 12:35:00
7:55 AM,39.0,30.6,72,30.06,10.0,NNW,3.5,-,N/A,,Clear,330,2013-02-12 12:55:00
8:15 AM,43.5,27.0,52,30.06,10.0,NW,3.5,-,N/A,,Clear,320,2013-02-12 13:15:00
8:35 AM,39.4,33.3,79,30.09,10.0,Calm,Calm,-,N/A,,Clear,0,2013-02-12 13:35:00
8:55 AM,46.2,31.1,56,30.07,10.0,Calm,Calm,-,N/A,,Clear,0,2013-02-12 13:55:00
9:15 AM,48.0,27.3,45,30.08,10.0,NW,3.5,-,N/A,,Clear,310,2013-02-12 14:15:00
9:35 AM,48.6,28.4,46,30.09,10.0,West,5.8,-,N/A,,Clear,270,2013-02-12 14:35:00
9:55 AM,50.2,29.3,45,30.10,10.0,West,8.1,-,N/A,,Clear,270,2013-02-12 14:55:00
10:15 AM,50.4,26.6,40,30.10,10.0,West,6.9,-,N/A,,Clear,280,2013-02-12 15:15:00
10:35 AM,50.9,27.0,40,30.10,10.0,West,5.8,-,N/A,,Clear,280,2013-02-12 15:35:00
10:55 AM,52.0,27.0,38,30.09,10.0,WNW,6.9,-,N/A,,Clear,300,2013-02-12 15:55:00
11:15 AM,52.9,27.5,38,30.08,10.0,WNW,4.6,-,N/A,,Clear,300,2013-02-12 16:15:00
11:35 AM,54.0,28.0,37,30.06,10.0,Calm,Calm,-,N/A,,Clear,0,2013-02-12 16:35:00
11:55 AM,55.0,28.6,36,30.04,10.0,West,5.8,-,N/A,,Unknown,270,2013-02-12 16:55:00
12:15 PM,55.4,26.6,33,30.05,10.0,West,3.5,-,N/A,,Clear,260,2013-02-12 17:15:00
12:35 PM,55.8,23.7,29,30.04,10.0,Calm,Calm,-,N/A,,Clear,0,2013-02-12 17:35:00
12:55 PM,56.5,24.8,30,30.02,10.0,Calm,Calm,-,N/A,,Unknown,0,2013-02-12 17:55:00
1:15 PM,56.5,24.8,30,30.02,10.0,SW,4.6,-,N/A,,Unknown,220,2013-02-12 18:15:00
1:35 PM,55.9,22.5,27,30.01,10.0,Calm,Calm,-,N/A,,Unknown,0,2013-02-12 18:35:00
1:55 PM,56.3,24.3,29,30.02,10.0,West,6.9,-,N/A,,Unknown,260,2013-02-12 18:55:00
2:15 PM,56.3,23.2,28,30.01,10.0,WSW,3.5,-,N/A,,Unknown,240,2013-02-12 19:15:00
2:35 PM,55.8,25.7,31,30.01,10.0,West,3.5,-,N/A,,Unknown,270,2013-02-12 19:35:00
2:55 PM,55.8,23.9,29,30.01,10.0,West,5.8,-,N/A,,Clear,260,2013-02-12 19:55:00
3:15 PM,55.8,23.5,29,29.99,10.0,Calm,Calm,-,N/A,,Clear,0,2013-02-12 20:15:00
3:35 PM,55.6,23.5,29,29.99,10.0,Calm,Calm,-,N/A,,Clear,0,2013-02-12 20:35:00
3:55 PM,55.2,26.4,33,30.01,10.0,Calm,Calm,-,N/A,,Clear,0,2013-02-12 20:55:00
4:15 PM,55.0,25.0,31,29.99,10.0,Calm,Calm,-,N/A,,Clear,0,2013-02-12 21:15:00
4:35 PM,54.7,25.2,32,29.99,10.0,Calm,Calm,-,N/A,,Unknown,0,2013-02-12 21:35:00
5:15 PM,52.5,29.1,41,29.97,10.0,Calm,Calm,-,N/A,,Unknown,0,2013-02-12 22:15:00
5:35 PM,52.3,27.5,38,29.97,10.0,Calm,Calm,-,N/A,,Unknown,0,2013-02-12 22:35:00
5:55 PM,51.8,30.9,45,29.97,10.0,Calm,Calm,-,N/A,,Clear,0,2013-02-12 22:55:00
6:15 PM,52.0,30.0,43,29.96,10.0,Calm,Calm,-,N/A,,Clear,0,2013-02-12 23:15:00
6:35 PM,48.6,30.6,50,29.97,10.0,Calm,Calm,-,N/A,,Clear,0,2013-02-12 23:35:00
6:55 PM,49.3,35.6,59,29.93,10.0,Calm,Calm,-,N/A,,Clear,0,2013-02-12 23:55:00
7:15 PM,49.1,33.1,54,29.92,10.0,Calm,Calm,-,N/A,,Clear,0,2013-02-13 00:15:00
7:35 PM,48.9,32.9,54,29.92,10.0,Calm,Calm,-,N/A,,Scattered Clouds,0,2013-02-13 00:35:00
7:55 PM,47.1,36.0,65,29.97,10.0,Calm,Calm,-,N/A,,Mostly Cloudy,0,2013-02-13 00:55:00
8:15 PM,49.1,31.1,50,29.97,10.0,Calm,Calm,-,N/A,,Overcast,0,2013-02-13 01:15:00
8:35 PM,48.6,32.7,54,29.97,10.0,Calm,Calm,-,N/A,,Overcast,0,2013-02-13 01:35:00
9:15 PM,49.8,31.8,50,29.97,10.0,Calm,Calm,-,N/A,,Overcast,0,2013-02-13 02:15:00
9:35 PM,48.0,33.8,58,29.99,10.0,WNW,4.6,-,N/A,,Light Drizzle,290,2013-02-13 02:35:00
9:55 PM,48.0,35.2,61,29.99,10.0,NW,5.8,-,N/A,,Overcast,320,2013-02-13 02:55:00
10:15 PM,48.6,34.3,58,29.97,10.0,Calm,Calm,-,N/A,,Overcast,0,2013-02-13 03:15:00
10:35 PM,49.1,32.4,53,29.96,10.0,Calm,Calm,-,N/A,,Overcast,0,2013-02-13 03:35:00
10:55 PM,47.8,32.7,56,29.95,10.0,West,4.6,-,N/A,,Overcast,260,2013-02-13 03:55:00
11:15 PM,48.2,34.3,59,29.97,10.0,NW,5.8,-,N/A,Rain,Light Rain,320,2013-02-13 04:15:00
11:35 PM,46.9,36.1,66,29.95,10.0,NW,4.6,-,N/A,Rain,Light Rain,320,2013-02-13 04:35:00
11:55 PM,46.0,36.0,68,29.92,10.0,North,3.5,-,N/A,,Overcast,350,2013-02-13 04:55:00